Location: Chemnitz
(49.5500°N, 11.5830°E)
Time: 14:49:55
(UTC+02:00)

ISS - Pass Details

Date: 30 March 2017
Orbit: 399 x 409 km, 51.6° (Epoch: 30 March)

Event Time Altitude Azimuth Distance (km) Brightness Sun altitude
Rises 20:48:05 0° 231° (SW) 2,304 0.5 -11.2°
Reaches altitude 10° 20:50:12 10° 225° (SW) 1,450 -0.7 -11.5°
Maximum altitude 20:53:19 46° 151° (SSE) 555 -3.5 -12.0°
Enters shadow 20:55:20 19° 85° (E) 1,027 -2.3 -12.3°
